Weather in Shaami-Yurt

Russia / Chechen Republic     43°13′38″N   45°23′14″E
temp.,
°C
wind,
m/s
gust,
m/s
humid.,
%
clouds,
%
prec.,
mm/h
press.,
hPa
HPBL,
m
28 february, sun
sun2800:00+4sw118075 0.0 101722
03:00+3se118240 0.0 101622
06:00+2nnw11858 0.0 101722
09:00+3sw118854 0.1 101625
12:00+5nw018699 0.1 1014155
15:00+4nw1192100 0.2 101467
18:00+3nw1397100 0.8 1016126
21:00+3w3596100 2.1 1018168
1 march, mon
mon100:00+3nw3598100 1.8 1019224
03:00+2nnw3498100 2.9 1019229
06:00+2nnw1298100 0.6 1021115
09:00+2nw1297100 1.9 1023141
12:00+2wnw1196100 1.7 1024149
15:00+3w0193100 1.8 1024183
18:00+2ssw119391 0.0 102623
21:00+2w118985 0.1 102823
2 march, tue
tue200:00+1w128589 0.0 102922
03:000wnw118581 0.0 102821
06:000wsw118528 0.0 102921
09:00+3ssw117020 0.0 1029278
12:00+6nne11570 0.0 1027777
15:00+8n11480 0.0 10251183
18:00+5wnw11590 0.0 102522
21:00+3w22730 0.0 102541
3 march, wed
wed300:00+2w12760 0.0 102423
03:00+1ssw127727 0.0 102324
06:00+1nne0175100 0.0 102121
09:00+3se1166100 0.0 1021371
12:00+6ene2256100 0.0 1019893
15:00+8ssw2745100 0.0 10181470
18:00+6nw4859100 0.0 1020856
21:00+3wnw5888100 1.6 1024566
4 march, thu
thu400:00+2w4790100 0.3 1025525
03:00+2wnw3691100 0.6 1026341
06:00+1w1191100 0.0 102753
09:00+3w127596 0.0 1028455
12:00+7n22529 0.0 10261067
15:00+8ne32485 0.0 10251290
18:00+5ene34603 0.0 1026206
21:00+4ene23662 0.0 102676